Find Kosmos-2295

NORAD ID: 23397 Int'l Des: 1994-076 Owner: VKS Country: RU Constellation: GLONASS operational
MEOCIRCULAR

リアルタイム位置

3D地球を読み込み中...

Kosmos-2295について

説明を読み込み中...

次回通過

Passes for default location (London). Set your location on the main map for personalized predictions.

高度履歴

Loading altitude history...

軌道要素

1 23397U 94076B 26102.79992166 .00000036 00000-0 00000+0 0 9998
2 23397 64.8044 71.2241 0011086 261.0498 281.3566 2.13099517244092
Epoch: Apr 12, 2026 • Age: 81 hours

現在のステータス

高度 19122.3 km
速度 3.96 km/s
衛星直下点 -49.33°S, 23.85°E
打ち上げ日 Nov 20, 1994
運用期間 31.4 years
タイプ other

技術仕様

分類 Payload
質量 1300.00 kg
乾燥質量 1200.00 kg
総質量 1300.00 kg
長さ 4.00 m
直径 1.50 m
スパン 7.80 m
形状 Cyl + Ant + 2 Pan
製造者 POL
バスタイプ Uragan
フェーズステータス In Orbit
所有者/国 VKS/RU

Most Searched